Back to catalog

SL-14 DEB

AlivePO
NORAD 26004·DEBRIS·🇷🇺 Russia

Launched Sep 28, 1991 from Plesetsk Cosmodrome

Loading…

Next Passes (next 24 hours)

TLE

FreshSource: Space-Track

Epoch: Sep 14, 2026, 01:03 UTC

1 26004U 91068P   26257.04381352  .00001667  00000-0  70668-2 0  9993
2 26004  82.5715 271.9502 0109602 170.9949 217.5549 12.80335691243487

Track SL-14 DEB in real time with AllMySat

Download on the App Store